TimeEDT,TemperatureF,Dew PointF,Humidity,Sea Level PressureIn,VisibilityMPH,Wind Direction,Wind SpeedMPH,Gust SpeedMPH,PrecipitationIn,Events,Conditions,WindDirDegrees,DateUTC
12:15 AM,55.4,44.6,67,30.37,10.0,ENE,12.7,17.3,N/A,,Clear,60,2013-10-09 04:15:00
12:35 AM,55.4,42.8,63,30.37,10.0,NE,13.8,19.6,N/A,,Clear,50,2013-10-09 04:35:00
12:55 AM,55.4,42.8,63,30.37,10.0,NE,12.7,19.6,N/A,,Clear,50,2013-10-09 04:55:00
1:15 AM,55.4,42.8,63,30.38,10.0,NE,15.0,21.9,N/A,,Clear,50,2013-10-09 05:15:00
1:35 AM,55.4,39.2,54,30.38,10.0,NE,13.8,21.9,N/A,,Clear,50,2013-10-09 05:35:00
1:55 AM,55.4,39.2,54,30.38,10.0,NE,17.3,23.0,N/A,,Clear,50,2013-10-09 05:55:00
2:15 AM,55.4,39.2,54,30.39,10.0,NE,17.3,25.3,N/A,,Clear,50,2013-10-09 06:15:00
2:35 AM,55.4,39.2,54,30.38,10.0,NE,13.8,21.9,N/A,,Clear,40,2013-10-09 06:35:00
2:55 AM,55.4,41.0,58,30.38,10.0,ENE,15.0,20.7,N/A,,Clear,70,2013-10-09 06:55:00
3:15 AM,55.4,39.2,54,30.38,10.0,ENE,16.1,23.0,N/A,,Clear,60,2013-10-09 07:15:00
3:35 AM,55.4,39.2,54,30.39,10.0,ENE,15.0,21.9,N/A,,Clear,60,2013-10-09 07:35:00
3:55 AM,55.4,39.2,54,30.39,10.0,ENE,12.7,20.7,N/A,,Clear,60,2013-10-09 07:55:00
4:15 AM,55.4,41.0,58,30.38,10.0,ENE,15.0,21.9,0.01,,Clear,70,2013-10-09 08:15:00
4:35 AM,55.4,41.0,58,30.39,10.0,ENE,11.5,18.4,0.01,,Clear,60,2013-10-09 08:35:00
4:55 AM,55.4,39.2,54,30.39,10.0,NE,15.0,-,0.01,,Clear,50,2013-10-09 08:55:00
5:15 AM,55.4,39.2,54,30.39,10.0,ENE,13.8,23.0,N/A,,Clear,60,2013-10-09 09:15:00
5:35 AM,55.4,41.0,58,30.40,10.0,NE,15.0,20.7,0.01,,Clear,50,2013-10-09 09:35:00
5:55 AM,55.4,41.0,58,30.40,10.0,ENE,16.1,21.9,0.01,,Clear,60,2013-10-09 09:55:00
6:15 AM,53.6,41.0,62,30.40,10.0,ENE,16.1,23.0,N/A,,Clear,60,2013-10-09 10:15:00
6:35 AM,53.6,41.0,62,30.40,10.0,ENE,16.1,20.7,N/A,,Clear,60,2013-10-09 10:35:00
6:55 AM,53.6,42.8,67,30.40,10.0,ENE,16.1,20.7,N/A,,Clear,60,2013-10-09 10:55:00
7:15 AM,55.4,42.8,63,30.41,10.0,ENE,15.0,20.7,N/A,,Clear,60,2013-10-09 11:15:00
7:35 AM,55.4,42.8,63,30.42,10.0,ENE,13.8,21.9,N/A,,Clear,60,2013-10-09 11:35:00
7:55 AM,55.4,42.8,63,30.43,10.0,ENE,13.8,23.0,N/A,,Clear,60,2013-10-09 11:55:00
8:15 AM,55.4,42.8,63,30.44,10.0,ENE,12.7,20.7,N/A,,Partly Cloudy,70,2013-10-09 12:15:00
8:35 AM,57.2,42.8,59,30.44,10.0,ENE,13.8,19.6,0.01,,Clear,70,2013-10-09 12:35:00
8:55 AM,57.2,44.6,63,30.44,10.0,ENE,17.3,23.0,0.01,,Clear,70,2013-10-09 12:55:00
9:15 AM,57.2,44.6,63,30.44,10.0,ENE,13.8,23.0,0.01,,Clear,60,2013-10-09 13:15:00
9:35 AM,59.0,44.6,59,30.45,10.0,ENE,13.8,20.7,0.01,,Clear,70,2013-10-09 13:35:00
9:55 AM,59.0,42.8,55,30.45,10.0,ENE,15.0,23.0,0.01,,Clear,70,2013-10-09 13:55:00
10:15 AM,60.8,44.6,55,30.45,10.0,ENE,16.1,20.7,N/A,,Clear,70,2013-10-09 14:15:00
10:35 AM,60.8,44.6,55,30.45,10.0,ENE,13.8,19.6,N/A,,Clear,60,2013-10-09 14:35:00
10:55 AM,59.0,42.8,55,30.45,10.0,ENE,17.3,20.7,N/A,,Clear,60,2013-10-09 14:55:00
11:15 AM,59.0,42.8,55,30.46,10.0,ENE,15.0,19.6,N/A,,Clear,60,2013-10-09 15:15:00
11:35 AM,59.0,42.8,55,30.45,10.0,ENE,13.8,17.3,N/A,,Clear,70,2013-10-09 15:35:00
11:55 AM,59.0,44.6,59,30.45,10.0,ENE,17.3,-,N/A,,Clear,70,2013-10-09 15:55:00
12:15 PM,60.8,44.6,55,30.45,10.0,ENE,12.7,17.3,N/A,,Clear,60,2013-10-09 16:15:00
12:35 PM,60.8,44.6,55,30.45,10.0,ENE,13.8,-,N/A,,Clear,70,2013-10-09 16:35:00
12:55 PM,62.6,44.6,52,30.44,10.0,ENE,15.0,18.4,N/A,,Clear,70,2013-10-09 16:55:00
1:15 PM,60.8,44.6,55,30.43,10.0,ENE,15.0,18.4,N/A,,Clear,60,2013-10-09 17:15:00
1:35 PM,60.8,44.6,55,30.43,10.0,ENE,15.0,19.6,N/A,,Clear,60,2013-10-09 17:35:00
1:55 PM,60.8,44.6,55,30.43,10.0,East,15.0,-,N/A,,Clear,80,2013-10-09 17:55:00
2:15 PM,60.8,44.6,55,30.42,10.0,ENE,12.7,17.3,N/A,,Clear,70,2013-10-09 18:15:00
2:35 PM,60.8,44.6,55,30.42,10.0,ENE,10.4,-,N/A,,Clear,70,2013-10-09 18:35:00
2:55 PM,60.8,44.6,55,30.42,10.0,ENE,12.7,17.3,0.01,,Clear,70,2013-10-09 18:55:00
3:15 PM,60.8,44.6,55,30.41,10.0,ENE,13.8,-,N/A,,Clear,60,2013-10-09 19:15:00
3:35 PM,60.8,42.8,52,30.41,10.0,ENE,11.5,-,N/A,,Clear,70,2013-10-09 19:35:00
3:55 PM,59.0,42.8,55,30.41,10.0,ENE,12.7,-,N/A,,Clear,60,2013-10-09 19:55:00
4:15 PM,59.0,42.8,55,30.41,10.0,ENE,11.5,-,N/A,,Clear,70,2013-10-09 20:15:00
4:35 PM,59.0,42.8,55,30.41,10.0,ENE,9.2,-,N/A,,Clear,70,2013-10-09 20:35:00
4:55 PM,57.2,44.6,63,30.41,10.0,ENE,8.1,-,N/A,,Clear,70,2013-10-09 20:55:00
5:15 PM,55.4,44.6,67,30.41,10.0,ENE,8.1,-,N/A,,Clear,70,2013-10-09 21:15:00
5:35 PM,55.4,42.8,63,30.41,10.0,East,6.9,-,N/A,,Clear,80,2013-10-09 21:35:00
5:55 PM,53.6,42.8,67,30.40,10.0,East,5.8,-,N/A,,Clear,80,2013-10-09 21:55:00
6:15 PM,51.8,44.6,76,30.40,10.0,East,5.8,-,N/A,,Clear,90,2013-10-09 22:15:00
6:35 PM,51.8,42.8,71,30.40,10.0,East,5.8,-,0.01,,Clear,90,2013-10-09 22:35:00
6:55 PM,51.8,42.8,71,30.39,10.0,ENE,6.9,-,0.01,,Clear,70,2013-10-09 22:55:00
7:15 PM,53.6,42.8,67,30.38,10.0,ENE,6.9,-,N/A,,Clear,70,2013-10-09 23:15:00
7:35 PM,51.8,42.8,71,30.39,10.0,East,5.8,-,N/A,,Clear,90,2013-10-09 23:35:00
7:55 PM,51.8,42.8,71,30.39,10.0,East,6.9,-,N/A,,Clear,80,2013-10-09 23:55:00
8:15 PM,50.0,42.8,76,30.39,10.0,East,6.9,-,N/A,,Clear,90,2013-10-10 00:15:00
8:35 PM,50.0,42.8,76,30.38,10.0,East,6.9,-,N/A,,Clear,80,2013-10-10 00:35:00
8:55 PM,50.0,42.8,76,30.38,10.0,ENE,5.8,-,N/A,,Clear,70,2013-10-10 00:55:00
9:15 PM,50.0,42.8,76,30.38,10.0,East,6.9,-,N/A,,Clear,80,2013-10-10 01:15:00
9:35 PM,51.8,42.8,71,30.38,10.0,East,6.9,-,N/A,,Clear,80,2013-10-10 01:35:00
9:55 PM,51.8,42.8,71,30.37,10.0,ENE,6.9,-,N/A,,Clear,70,2013-10-10 01:55:00
10:15 PM,53.6,42.8,67,30.37,10.0,East,8.1,-,N/A,,Clear,80,2013-10-10 02:15:00
10:35 PM,53.6,42.8,67,30.37,10.0,East,6.9,-,N/A,,Clear,80,2013-10-10 02:35:00
10:55 PM,53.6,42.8,67,30.37,10.0,East,6.9,-,N/A,,Clear,80,2013-10-10 02:55:00
11:15 PM,53.6,42.8,67,30.37,10.0,East,6.9,-,N/A,,Clear,80,2013-10-10 03:15:00
11:35 PM,53.6,42.8,67,30.36,10.0,East,6.9,-,N/A,,Clear,80,2013-10-10 03:35:00
11:55 PM,53.6,42.8,67,30.36,10.0,ENE,6.9,-,N/A,,Clear,70,2013-10-10 03:55:00